GW3759 Weather Reports


Display with metric or nautical units.
time (UTC)temp
F
wind
direction
speed
MPH
gust
MPH
rain 1hr
in
rain 24hr
in
rain mn
in
humidity
%
barometer
mb
20260510191504 80 174 3.0 9.0 0.00 0.00 0.00 37 1012.3
20260510190012 80 110 4.0 15.0 0.00 0.00 0.00 36 1012.6
20260510184502 80 177 6.0 12.0 0.00 0.00 0.00 38 1012.7
20260510183004 79 142 4.0 10.0 0.00 0.00 0.00 36 1012.7
20260510181504 80 161 12.0 18.0 0.00 0.00 0.00 39 1012.8
20260510180002 79 134 4.0 8.0 0.00 0.00 0.00 38 1012.8
20260510174504 78 163 5.0 15.0 0.00 0.00 0.00 37 1013.2
20260510173003 78 161 4.0 14.0 0.00 0.00 0.00 38 1013.0
20260510171503 78 183 2.0 7.0 0.00 0.00 0.00 38 1013.0
20260510170004 77 147 3.0 7.0 0.00 0.00 0.00 41 1013.3
20260510164503 77 143 0.0 8.0 0.00 0.00 0.00 43 1013.4
20260510163004 76 170 4.0 8.0 0.00 0.00 0.00 44 1013.4
20260510161510 76 196 3.0 8.0 0.00 0.00 0.00 42 1013.6
20260510160012 76 185 1.0 5.0 0.00 0.00 0.00 46 1013.7
20260510154510 75 136 2.0 9.0 0.00 0.00 0.00 52 1013.8
20260510153005 74 249 0.0 7.0 0.00 0.00 0.00 46 1013.9
20260510151503 73 275 0.0 3.0 0.00 0.00 0.00 52 1013.8
20260510150010 73 205 1.0 6.0 0.00 0.00 0.00 53 1013.8
20260510144532 72 194 2.0 5.0 0.00 0.00 0.00 50 1013.8
20260510143018 71 171 0.0 4.0 0.00 0.00 0.00 54 1013.7
20260510141506 69 203 0.0 1.0 0.00 0.00 0.00 65 1013.6
20260510140007 67 228 0.0 0.0 0.00 0.00 0.00 70 1013.6
20260510134503 66 122 0.0 1.0 0.00 0.00 0.00 72 1013.6
20260510133031 65 49 0.0 1.0 0.00 0.00 0.00 74 1013.4
20260510131519 64 321 0.0 1.0 0.00 0.00 0.00 76 1013.3
20260510130006 63 319 0.0 1.0 0.00 0.00 0.00 79 1013.4
20260510124516 62 281 0.0 2.0 0.00 0.00 0.00 78 1013.6
20260510123009 60 103 0.0 1.0 0.00 0.00 0.00 84 1013.5
20260510121510 58 146 0.0 1.0 0.00 0.00 0.00 88 1013.3
20260510120028 56 161 0.0 1.0 0.00 0.00 0.00 92 1013.3
20260510114502 55 166 0.0 1.0 0.00 0.00 0.00 93 1013.1
20260510113005 54 313 0.0 1.0 0.00 0.00 0.00 95 1013.0
20260510111503 53 299 0.0 0.0 0.00 0.00 0.00 94 1012.8
20260510110003 53 11 0.0 1.0 0.00 0.00 0.00 94 1012.5
20260510104502 53 105 0.0 0.0 0.00 0.00 0.00 94 1012.2
20260510103003 53 98 0.0 0.0 0.00 0.00 0.00 94 1012.0
20260510101503 52 263 0.0 0.0 0.00 0.00 0.00 93 1011.9
20260510100005 52 303 0.0 2.0 0.00 0.00 0.00 93 1011.7
20260510094503 52 346 0.0 0.0 0.00 0.00 0.00 93 1011.6
20260510093003 52 346 0.0 2.0 0.00 0.00 0.00 92 1011.5
20260510091503 53 346 0.0 1.0 0.00 0.00 0.00 92 1011.6
20260510090010 53 346 0.0 2.0 0.00 0.00 0.00 93 1011.5
20260510084504 54 346 0.0 2.0 0.00 0.00 0.00 92 1011.4
20260510083005 54 346 0.0 2.0 0.00 0.00 0.00 92 1011.4
20260510081510 54 346 0.0 1.0 0.00 0.00 0.00 92 1011.4
20260510080004 54 346 0.0 0.0 0.00 0.00 0.00 91 1011.1
20260510074504 54 346 0.0 1.0 0.00 0.00 0.00 91 1011.0
20260510073005 55 346 0.0 2.0 0.00 0.00 0.00 91 1010.8
20260510071505 55 346 0.0 4.0 0.00 0.00 0.00 90 1010.7
20260510070007 55 279 0.0 2.0 0.00 0.00 0.00 90 1010.7
20260510064505 56 279 0.0 0.0 0.00 0.00 0.00 89 1010.4
20260510063004 56 279 0.0 0.0 0.00 0.00 0.00 89 1010.5
20260510061511 56 279 0.0 2.0 0.00 0.00 0.00 88 1010.4
20260510060006 56 279 0.0 2.0 0.00 0.00 0.00 87 1010.4
20260510054514 57 279 1.0 2.0 0.00 0.00 0.00 87 1010.4
20260510053005 57 279 0.0 0.0 0.00 0.00 0.00 86 1010.6
20260510051516 57 279 0.0 2.0 0.00 0.00 0.00 85 1010.5
20260510050005 57 279 1.0 2.0 0.00 0.00 0.00 85 1010.5
20260510044507 58 279 1.0 2.0 0.00 0.00 0.00 85 1010.5
20260510043004 58 279 0.0 1.0 0.00 0.00 0.00 86 1010.4
20260510041505 58 279 0.0 2.0 0.00 0.00 0.00 84 1010.4
20260510040010 59 279 0.0 1.0 0.00 0.00 0.00 82 1010.5
20260510034508 59 279 0.0 1.0 0.00 0.00 0.00 83 1010.4
20260510033007 59 279 0.0 0.0 0.00 0.00 0.00 82 1010.2
20260510031505 59 279 0.0 0.0 0.00 0.00 0.00 81 1010.0
20260510030003 60 279 0.0 1.0 0.00 0.00 0.00 78 1010.0
20260510024512 61 279 0.0 0.0 0.00 0.00 0.00 78 1009.9
20260510023012 61 279 0.0 0.0 0.00 0.00 0.00 76 1009.8
20260510021514 62 279 0.0 0.0 0.00 0.00 0.00 74 1009.8
20260510020005 62 279 0.0 0.0 0.00 0.00 0.00 72 1009.5
20260510014507 63 279 0.0 1.0 0.00 0.00 0.00 72 1009.4
20260510013007 64 279 0.0 0.0 0.00 0.00 0.00 70 1009.1
20260510011520 65 279 0.0 0.0 0.00 0.00 0.00 67 1008.9
20260510010004 67 279 0.0 0.0 0.00 0.00 0.00 64 1008.8
20260510004506 68 279 0.0 0.0 0.00 0.00 0.00 62 1008.7
20260510003014 70 133 0.0 0.0 0.00 0.00 0.00 57 1008.5
20260510001508 71 75 0.0 1.0 0.00 0.00 0.00 55 1008.4
20260510000014 72 234 1.0 3.0 0.00 0.00 0.00 54 1008.3
20260509234508 72 140 2.0 6.0 0.00 0.00 0.00 52 1008.1
20260509233011 73 258 1.0 6.0 0.00 0.00 0.00 54 1008.0
20260509231503 74 128 2.0 9.0 0.00 0.00 0.00 50 1008.0
20260509230003 74 196 0.0 2.0 0.00 0.00 0.00 52 1008.0
20260509224502 74 125 0.0 4.0 0.00 0.00 0.00 52 1007.9
20260509223010 73 136 2.0 7.0 0.00 0.00 0.00 52 1008.0
20260509221503 74 113 3.0 14.0 0.00 0.00 0.00 52 1008.0
20260509220003 74 137 4.0 13.0 0.00 0.00 0.00 48 1008.0
20260509214505 74 143 5.0 11.0 0.00 0.00 0.00 49 1008.0
20260509213003 73 153 7.0 14.0 0.00 0.00 0.00 48 1008.0
20260509211502 73 188 6.0 14.0 0.00 0.00 0.00 49 1007.8
20260509210008 74 145 7.0 15.0 0.00 0.00 0.00 48 1007.7
20260509204503 74 146 8.0 17.0 0.00 0.00 0.00 48 1007.7
20260509203003 73 136 7.0 14.0 0.00 0.00 0.00 51 1007.7
20260509201503 73 151 4.0 14.0 0.00 0.00 0.00 52 1007.6
20260509200004 73 132 6.0 12.0 0.00 0.00 0.00 51 1007.7
20260509194504 73 158 6.0 13.0 0.00 0.00 0.00 54 1008.1
20260509193004 72 162 7.0 14.0 0.00 0.00 0.00 54 1008.3